Terug naar catalogus

STARLINK-34169

ActiefCommunicatieVLEO
NORAD 63999·PAYLOAD·🇺🇸 United States

Gelanceerd May 14, 2025 vanaf Cape Canaveral Space Force Station

Loading…

Volgende Passages (komende 24 uur)

TLE

VersSource: CelesTrak SupGP

Epoch: Sep 14, 2026, 21:28 UTC

1 63999C 25101F   26257.89493056  .00016226  00000+0  58769-3 0  2572
2 63999  43.0037   9.2654 0001325 278.7654  83.2340 15.27571240    16

Volg STARLINK-34169 in realtime met AllMySat

Download on the App Store